TJS-2

Last updated on Tue Sep 22 2026 00:03:14 GMT+0000 (Coordinated Universal Time)

1 41911U 17001A 26264.62816153 -.00000010 00000+0 00000+0 0 9997 2 41911 1.0743 83.8165 0001676 150.4312 58.9638 1.00272589 35685
UTC large
Height (km)
Speed (km/s)
/
Latitude / Longitude
Inclination (degrees)
Orbital Period (minutes)
Azimuth
Elevation
Range (km)
Doppler Factor

Next 0 passes for location: London (51.5072 / 0.1276)

No passes found over London.
TJS-2